Content
SEND FEEDBACK

Daily
Averages
Monthly
Summary
United States of America

TUSCOLA, TEXAS


Home > North America > United States > Texas
Elevation: 1770 feet     Latitude: 32 14N     Longitude: 099 54W

WEATHER
 
SELECT A DAY
Number of Records: 104,485;   Date Range: 1/1/95 - 11/24/14
 
SHARE

PRINT THIS DATA

[ ← Previous Day ]
WEATHER ALMANAC - FEBRUARY 13, 2013
[ Next Day → ]
[ °C ]   °F
Weather ElementAverageHighLow
Temperature44.6 °F60.1 °F (3:52 pm)30.9 °F (3:52 am)
Dewpoint26.1 °F32 °F (8:52 am)19.9 °F (1:52 pm)
Humidity55.5 %96 % (3:52 am)21 % (3:52 pm)
Barometer30.07 in30.15 in (8:52 am)29.99 in (5:52 pm)
Wind Speed5.5 mph10.4 mph (4:52 pm)
Wind Gust16.1 mph (1:52 pm)
Weather ElementAverage
Visibility10 mi
Wind DirectionS (183 °)

Weather ElementTotal
Precipitation---
Heating Degree Days19.5 (Base 65)
Averaged from 23 records on February 13, 2013
WEATHER CONDITIONS BREAKOUT
WIND DIRECTION BREAKOUT
WEATHER BY HOUR - FEBRUARY 13, 2013
[ °C ]   °F
Local TimeTemperatureDewpointHumidityBarometerVisibilityWind DirectionWind SpeedGust SpeedPrecipitationEventsConditions
12:52 AM35.1 °F30.9 °F85 %30.11 in10.0 miNW (320°)8.1 mphClear
2:52 AM32.0 °F30.0 °F92 %30.10 in10.0 miWNW (290°)5.8 mphClear
3:52 AM30.9 °F30.0 °F96 %30.09 in10.0 miWest (270°)6.9 mphClear
4:52 AM30.9 °F28.0 °F89 %30.10 in10.0 miNorthClear
5:52 AM30.9 °F28.9 °F92 %30.12 in10.0 miWest (280°)4.6 mphClear
6:52 AM30.9 °F28.9 °F92 %30.13 in10.0 miCalmClear
7:52 AM32.0 °F28.9 °F88 %30.14 in10.0 miCalmClear
8:52 AM37.0 °F32.0 °F82 %30.15 in10.0 miCalmClear
9:52 AM45.0 °F32.0 °F60 %30.14 in10.0 miWNW (300°)4.6 mphClear
10:52 AM50.0 °F30.0 °F46 %30.14 in10.0 miNW (310°)3.5 mphClear
11:52 AM53.1 °F28.0 °F38 %30.12 in10.0 miWNW (300°)4.6 mphClear
12:52 PM55.0 °F26.1 °F33 %30.09 in10.0 miVariable6.9 mphClear
1:52 PM57.0 °F19.9 °F24 %30.04 in10.0 miWest (260°)6.9 mph16.1 mphClear
2:52 PM57.9 °F21.0 °F24 %30.02 in10.0 miSW (230°)8.1 mphClear
3:52 PM60.1 °F19.9 °F21 %30.00 in10.0 miWest (270°)6.9 mphClear
4:52 PM60.1 °F21.0 °F22 %30.00 in10.0 miWNW (290°)10.4 mphClear
5:52 PM57.9 °F21.9 °F25 %29.99 in10.0 miWSW (250°)6.9 mphClear
6:52 PM55.0 °F21.0 °F27 %30.00 in10.0 miCalmClear
7:52 PM46.9 °F24.1 °F41 %30.01 in10.0 miSSE (150°)9.2 mphClear
8:52 PM44.1 °F25.0 °F47 %30.01 in10.0 miSouth (170°)6.9 mphClear
9:52 PM39.9 °F25.0 °F55 %30.02 in10.0 miSouth (170°)8.1 mphClear
10:52 PM42.1 °F24.1 °F49 %30.02 in10.0 miSouth (170°)6.9 mphClear
11:52 PM41.0 °F23.0 °F49 %30.02 in10.0 miSouth (180°)5.8 mphClear
Hourly data recorded from KABI, located miles away from Tuscola, Texas







STORIES FROM OUR PARTNERS